Temp
13 13 13 11 11 13 14 13 13 11 11 11 11 11 10 10 10 10 9 9 9 9 9 9 9 9 8 9 9 8 9 8 8 8 8 9 8 8 8 8 8 8 8 8 9 9 9 9 9
13 13 12 11 14 12 14 13 12 12 11 12 11 10 10 9 11 10 9 9 9 9 8 9 9 9 9 9 9 9 9 8 8 9 9 8 8 9 8 8 8 8 9 9 9 9 9 9 9
14 14 11 13 14 16 15 13 13 13 12 12 11 11 10 9 8 9 10 9 9 9 9 9 9 9 9 9 9 9 9 9 9 9 9 9 9 9 9 9 9 9 9 9 9 9 9 9 9
14 13 13 16 17 16 15 14 14 13 13 12 11 10 10 9 9 10 10 10 9 9 9 9 9 9 9 9 9 9 9 9 9 9 9 9 8 9 9 9 9 9 9 9 9 9 9 9 9
11 12 17 17 16 16 15 14 14 13 13 13 11 10 9 10 8 8 10 9 9 10 10 10 9 9 9 9 9 9 9 9 9 9 9 9 9 9 8 8 9 9 9 9 9 9 9 9 9
13 15 19 18 16 16 15 15 15 14 13 12 11 10 9 8 8 8 10 9 9 10 10 10 10 10 9 9 9 9 9 9 9 9 9 9 9 8 8 9 9 9 9 9 9 9 9 9 9
13 16 19 18 16 16 15 15 15 14 13 12 11 10 9 9 8 8 8 10 8 7 9 10 10 10 10 9 9 9 9 9 9 9 9 9 9 9 9 9 9 9 9 9 9 9 9 9 9
15 17 18 19 18 16 15 15 14 14 14 12 12 10 9 9 8 8 9 9 9 10 10 10 10 10 10 10 9 9 9 9 9 9 9 9 9 9 9 9 9 10 10 9 9 9 9 9 9
15 15 17 19 18 16 15 15 14 14 12 12 12 11 10 9 9 8 8 9 9 10 10 10 10 10 10 10 10 10 10 9 9 9 9 9 9 9 9 9 9 9 9 9 9 9 9 9 9
15 15 18 18 18 16 15 15 14 13 12 12 12 11 11 11 9 9 9 8 8 10 10 10 10 10 10 10 10 10 10 9 10 10 9 9 9 9 9 9 9 9 9 9 9 9 9 9 8
17 15 18 18 18 17 15 15 14 14 13 12 12 10 12 12 10 9 9 8 8 11 11 7 7 11 11 8 10 10 10 10 10 9 9 9 9 10 10 9 9 9 9 8 9 8 9 9 8
17 17 18 17 17 17 16 15 15 14 14 13 12 11 12 12 10 9 9 8 8 11 8 7 11 11 11 11 10 7 7 8 8 9 9 9 9 9 9 8 8 9 9 9 8 9 8 9 8
17 17 17 17 17 17 16 15 15 14 14 13 12 12 12 10 9 9 9 9 11 11 11 11 11 11 11 11 11 9 7 9 7 8 10 9 9 9 9 9 9 9 9 8 9 8 9 9 8
18 18 18 17 17 17 16 16 15 14 14 13 12 13 12 11 10 9 9 10 12 12 12 12 12 12 11 11 10 10 10 7 9 7 9 10 10 8 9 9 9 8 9 8 8 9 9 8 8
18 17 17 17 17 17 16 16 15 14 14 13 12 11 11 11 10 10 10 12 12 12 12 12 12 12 11 11 11 11 10 10 9 9 10 10 10 9 9 9 9 9 9 9 9 9 8 8 7
17 18 18 18 17 17 16 17 15 14 14 13 12 12 11 11 11 10 12 12 12 12 12 12 12 12 12 11 11 11 11 9 9 9 9 9 9 10 9 9 9 9 8 8 8 8 9 8 9
18 19 19 18 17 17 16 13 16 14 14 14 13 12 12 11 11 11 12 13 13 13 13 13 12 12 12 12 11 11 11 10 9 8 9 8 10 9 9 9 9 9 9 9 9 8 8 9 10
19 19 20 19 18 17 17 17 16 15 14 14 13 13 12 11 12 11 13 13 13 13 13 13 13 12 12 12 11 11 11 10 10 10 9 10 9 10 10 9 9 9 9 8 9 10 10 10 10
19 20 19 20 18 17 17 18 17 16 15 15 14 13 13 12 12 11 13 13 13 13 14 13 13 13 13 13 11 12 11 11 10 10 9 10 10 10 10 10 10 10 9 9 9 10 10 10 10
19 20 20 20 19 18 18 18 18 17 15 15 15 14 13 13 12 11 10 11 13 13 14 14 13 13 13 13 12 10 10 7 9 9 11 11 11 11 11 10 10 9 9 10 11 10 10 10 10
19 20 21 21 19 18 19 18 18 18 17 15 15 15 14 13 13 12 11 12 12 13 14 14 13 13 13 13 12 12 11 11 10 10 11 12 12 12 11 11 10 11 10 10 10 10 10 10 9
19 19 20 20 18 19 18 20 19 18 18 17 16 15 15 14 13 13 11 10 11 12 14 14 13 13 13 12 13 12 12 11 10 10 8 11 12 12 11 11 11 11 11 10 10 10 10 9 9
18 19 19 20 20 19 20 19 21 19 19 18 17 16 16 15 14 13 13 11 10 10 11 14 13 13 13 13 12 12 12 12 11 11 11 11 11 11 11 11 11 11 10 10 10 10 10 10 9
18 19 19 19 20 20 20 18 21 17 20 19 18 17 16 16 15 14 13 13 11 10 11 14 14 14 14 14 13 13 13 12 10 11 11 11 11 11 11 11 11 10 10 10 10 10 10 10 9
17 18 19 20 21 21 19 20 17 21 20 19 19 19 17 16 16 15 14 13 13 15 15 15 15 15 14 14 14 13 12 12 12 12 11 11 11 11 11 11 10 10 10 10 10 10 10 9 9
17 18 19 19 21 22 21 21 21 21 20 19 18 19 19 17 16 15 15 14 15 16 16 16 16 15 15 14 14 13 13 12 12 12 12 11 11 11 11 10 10 10 9 9 9 9 9 9 9
18 18 19 20 20 21 21 21 20 19 19 19 19 19 19 18 17 16 15 16 16 16 16 16 16 15 15 14 14 13 13 12 12 12 12 12 11 11 11 10 10 10 9 9 9 9 9 9 9
17 18 18 19 20 21 22 21 21 20 19 19 19 19 19 19 18 17 16 15 16 16 16 16 15 15 15 14 14 13 13 13 13 12 12 12 11 11 11 11 11 10 10 8 7 8 9 8 8
16 17 18 19 19 22 22 22 21 20 19 19 19 19 20 19 19 18 17 15 17 17 16 15 15 15 15 14 14 14 13 13 13 13 12 12 12 11 11 10 10 10 9 8 8 7 7 8 8
17 17 18 19 19 19 20 22 21 21 20 19 20 20 20 20 20 19 18 16 15 17 17 16 15 15 15 15 14 14 13 13 13 13 13 12 12 12 12 11 10 10 10 9 8 6 7 8 8
Height
3161 3158 3158 3157 3161 3158 3159 3163 3164 3164 3165 3164 3165 3166 3165 3162 3161 3170 3170 3172 3173 3174 3176 3177 3179 3181 3185 3186 3190 3191 3193 3196 3198 3200 3201 3202 3204 3205 3205 3206 3206 3206 3206 3206 3205 3205 3204 3203 3202
3163 3159 3157 3147 3160 3159 3159 3164 3165 3165 3167 3166 3169 3168 3168 3168 3166 3167 3171 3174 3177 3178 3180 3181 3183 3185 3188 3191 3193 3195 3197 3200 3201 3203 3203 3205 3206 3206 3207 3208 3208 3208 3207 3208 3207 3206 3205 3204 3204
3164 3161 3155 3158 3162 3158 3161 3166 3168 3170 3171 3172 3172 3171 3172 3173 3174 3173 3176 3178 3180 3182 3184 3185 3187 3189 3192 3194 3197 3199 3200 3202 3204 3205 3206 3207 3207 3208 3209 3209 3209 3209 3209 3209 3208 3207 3207 3206 3205
3166 3164 3161 3162 3161 3164 3166 3169 3171 3173 3174 3174 3173 3174 3177 3179 3176 3177 3179 3181 3183 3185 3187 3189 3190 3192 3195 3197 3200 3201 3203 3204 3206 3207 3208 3209 3209 3210 3211 3210 3211 3210 3210 3210 3209 3208 3208 3207 3207
3166 3167 3167 3168 3170 3169 3170 3172 3174 3173 3176 3177 3176 3176 3178 3180 3182 3182 3182 3184 3187 3189 3190 3192 3194 3195 3198 3200 3202 3204 3206 3207 3209 3209 3210 3210 3211 3212 3211 3211 3211 3211 3211 3210 3210 3209 3209 3209 3208
3171 3170 3168 3169 3173 3173 3174 3175 3175 3176 3178 3179 3179 3179 3180 3182 3184 3185 3186 3189 3190 3192 3193 3195 3197 3199 3201 3203 3205 3206 3208 3209 3210 3211 3211 3212 3212 3213 3212 3212 3212 3212 3212 3212 3211 3210 3210 3210 3209
3172 3172 3168 3172 3174 3175 3176 3177 3177 3178 3180 3182 3182 3181 3182 3185 3186 3189 3189 3190 3193 3195 3196 3198 3200 3201 3203 3205 3206 3208 3210 3211 3212 3212 3213 3214 3214 3214 3214 3214 3214 3214 3213 3213 3212 3212 3212 3211 3211
3173 3171 3170 3167 3170 3176 3177 3177 3178 3180 3181 3183 3184 3183 3184 3187 3189 3192 3190 3191 3194 3197 3198 3199 3201 3203 3205 3206 3208 3210 3211 3212 3213 3214 3215 3215 3215 3216 3215 3215 3215 3214 3214 3214 3214 3213 3213 3213 3213
3174 3176 3165 3169 3170 3175 3178 3178 3180 3181 3181 3184 3186 3183 3186 3186 3191 3193 3196 3193 3195 3198 3199 3201 3203 3204 3206 3207 3209 3210 3212 3213 3214 3214 3215 3216 3216 3216 3216 3216 3216 3216 3216 3215 3215 3214 3214 3214 3213
3171 3165 3166 3169 3171 3174 3178 3179 3180 3182 3182 3184 3186 3186 3184 3186 3191 3195 3198 3195 3197 3198 3199 3202 3203 3204 3206 3207 3210 3211 3212 3213 3214 3215 3216 3216 3217 3217 3217 3217 3217 3216 3216 3216 3216 3215 3214 3214 3213
3168 3165 3166 3171 3173 3175 3178 3179 3180 3182 3184 3185 3185 3184 3185 3187 3190 3195 3198 3199 3200 3199 3201 3205 3205 3205 3206 3209 3210 3211 3212 3213 3214 3215 3216 3216 3217 3217 3217 3215 3216 3215 3215 3216 3215 3215 3216 3213 3214
3169 3170 3171 3172 3174 3176 3178 3179 3181 3183 3184 3185 3186 3184 3186 3189 3191 3195 3198 3198 3199 3200 3203 3206 3204 3206 3207 3209 3210 3212 3213 3213 3214 3215 3215 3215 3216 3216 3217 3216 3216 3216 3216 3216 3216 3214 3214 3213 3213
3170 3171 3172 3173 3174 3175 3177 3180 3181 3183 3185 3185 3185 3184 3187 3190 3193 3196 3198 3198 3199 3200 3202 3203 3205 3206 3208 3209 3210 3212 3213 3213 3214 3214 3214 3214 3215 3215 3215 3215 3216 3216 3216 3215 3215 3214 3212 3212 3211
3169 3170 3171 3173 3173 3175 3177 3178 3181 3182 3184 3185 3184 3185 3187 3190 3193 3195 3197 3197 3199 3200 3202 3203 3204 3206 3208 3209 3209 3210 3211 3213 3213 3213 3213 3214 3214 3215 3214 3214 3215 3216 3215 3214 3214 3212 3212 3212 3210
3168 3169 3170 3171 3171 3173 3174 3176 3178 3180 3182 3184 3184 3185 3188 3190 3192 3194 3195 3197 3198 3200 3201 3203 3204 3205 3207 3208 3208 3209 3210 3210 3212 3211 3212 3213 3213 3213 3213 3214 3214 3214 3213 3213 3212 3211 3210 3208 3208
3166 3167 3164 3165 3169 3169 3169 3168 3171 3176 3180 3183 3184 3185 3187 3189 3191 3192 3194 3195 3197 3198 3199 3201 3203 3203 3204 3205 3206 3208 3209 3210 3210 3211 3212 3211 3212 3212 3212 3212 3212 3212 3212 3210 3210 3209 3208 3206 3205
3161 3159 3158 3162 3165 3166 3166 3153 3171 3173 3178 3181 3183 3184 3186 3187 3189 3190 3192 3193 3194 3196 3198 3199 3200 3201 3202 3203 3204 3206 3207 3208 3210 3209 3210 3211 3210 3210 3210 3210 3210 3210 3210 3209 3208 3206 3205 3203 3202
3152 3155 3151 3156 3162 3165 3166 3166 3169 3173 3177 3179 3181 3183 3183 3185 3186 3188 3189 3190 3192 3193 3195 3196 3197 3199 3199 3200 3202 3203 3205 3206 3206 3207 3207 3207 3207 3207 3207 3208 3208 3208 3208 3207 3204 3204 3203 3200 3197
3148 3148 3151 3152 3154 3163 3165 3166 3169 3172 3175 3177 3178 3180 3181 3183 3185 3186 3186 3188 3189 3190 3192 3193 3195 3196 3197 3198 3200 3201 3202 3203 3204 3204 3204 3205 3204 3204 3205 3205 3204 3204 3205 3203 3202 3202 3201 3200 3196
3145 3144 3145 3148 3153 3158 3161 3163 3166 3167 3171 3173 3175 3177 3178 3180 3182 3182 3182 3184 3185 3187 3189 3191 3192 3194 3195 3196 3197 3198 3200 3203 3201 3202 3202 3201 3201 3202 3202 3203 3203 3203 3202 3201 3201 3200 3198 3197 3195
3142 3140 3141 3144 3148 3154 3157 3158 3160 3164 3167 3169 3171 3174 3175 3176 3178 3179 3178 3179 3181 3182 3185 3187 3189 3190 3192 3193 3195 3196 3197 3199 3200 3200 3200 3200 3200 3200 3201 3201 3202 3202 3202 3200 3199 3197 3197 3195 3194
3138 3140 3141 3142 3149 3148 3152 3148 3150 3156 3160 3164 3166 3168 3170 3171 3173 3175 3175 3175 3176 3178 3180 3183 3186 3187 3189 3191 3191 3193 3195 3197 3198 3199 3201 3200 3200 3200 3200 3201 3200 3200 3200 3199 3197 3195 3193 3193 3192
3135 3139 3141 3140 3139 3144 3142 3147 3140 3148 3150 3156 3160 3163 3165 3167 3168 3170 3172 3172 3173 3175 3175 3177 3181 3183 3185 3187 3189 3191 3193 3195 3197 3198 3199 3200 3200 3201 3201 3201 3201 3200 3199 3197 3195 3194 3192 3192 3190
3135 3136 3136 3137 3135 3134 3136 3142 3134 3144 3142 3148 3153 3157 3160 3162 3165 3167 3169 3171 3170 3170 3171 3172 3175 3178 3182 3184 3186 3189 3191 3193 3195 3197 3198 3199 3199 3199 3200 3200 3200 3199 3198 3197 3195 3193 3191 3189 3188
3129 3131 3128 3127 3124 3122 3134 3131 3140 3133 3137 3143 3146 3150 3154 3157 3160 3161 3162 3164 3164 3164 3166 3168 3171 3174 3178 3181 3183 3186 3189 3191 3192 3194 3195 3197 3197 3196 3197 3198 3198 3197 3196 3195 3194 3193 3190 3189 3187
3116 3120 3118 3118 3118 3120 3121 3118 3121 3129 3134 3138 3144 3144 3147 3150 3153 3155 3155 3157 3158 3161 3162 3165 3167 3171 3175 3178 3181 3184 3186 3188 3189 3191 3192 3193 3194 3194 3195 3195 3195 3195 3195 3194 3193 3191 3189 3186 3185
3109 3109 3117 3117 3115 3112 3109 3114 3121 3125 3129 3134 3138 3140 3143 3145 3149 3149 3151 3151 3152 3155 3158 3161 3164 3168 3171 3175 3178 3181 3183 3184 3186 3187 3188 3189 3190 3190 3191 3191 3190 3192 3190 3190 3189 3187 3186 3184 3183
3099 3109 3111 3106 3102 3099 3101 3104 3111 3116 3124 3128 3132 3136 3138 3140 3143 3146 3146 3146 3147 3149 3153 3157 3160 3164 3168 3171 3174 3177 3178 3180 3181 3182 3185 3186 3187 3187 3186 3187 3187 3184 3186 3186 3185 3182 3181 3181 3180
3093 3092 3096 3102 3102 3095 3096 3095 3103 3109 3117 3121 3126 3130 3132 3134 3137 3140 3142 3142 3142 3145 3146 3151 3155 3159 3162 3165 3170 3172 3173 3175 3177 3178 3181 3181 3181 3181 3181 3182 3182 3180 3181 3178 3175 3178 3178 3176 3176
3086 3087 3091 3091 3095 3095 3093 3090 3097 3104 3110 3116 3120 3123 3126 3129 3131 3132 3136 3138 3139 3137 3140 3143 3148 3152 3156 3161 3164 3167 3169 3170 3172 3174 3175 3177 3176 3177 3177 3177 3176 3175 3173 3172 3172 3171 3171 3172 3171
Wind_Speed
13 11 9 12 6 7 8 8 8 8 9 3 15 13 14 17 11 27 30 26 29 30 30 30 30 31 29 27 24 24 23 20 20 19 17 15 12 11 9 9 9 9 9 8 8 8 9 9 10
11 8 7 7 10 5 15 13 10 16 14 16 11 11 14 19 24 34 32 29 29 29 28 28 28 28 26 24 23 22 21 20 19 17 16 14 12 11 10 9 9 9 8 7 8 9 10 10 10
15 11 12 7 3 13 15 11 12 13 11 7 5 8 10 23 19 28 29 29 28 27 24 25 24 24 23 23 22 21 20 18 18 17 16 14 12 11 9 9 8 8 7 8 8 9 9 9 10
9 9 4 5 11 9 12 12 12 10 7 6 9 19 23 17 16 24 26 25 24 23 22 21 22 22 22 21 20 19 19 18 18 16 15 13 11 9 7 8 7 6 6 7 8 7 8 8 9
3 4 5 8 8 10 10 10 9 10 8 10 13 21 20 16 21 22 23 24 19 22 22 21 20 21 21 20 19 19 19 18 17 15 13 11 9 7 7 6 6 6 6 6 7 7 8 7 8
5 3 4 11 9 8 8 9 7 8 8 12 17 19 17 20 21 20 22 20 22 21 22 21 21 22 21 21 20 19 18 16 15 13 11 9 7 6 6 4 5 5 6 6 7 8 8 7 8
6 5 9 10 8 9 7 8 6 7 9 13 14 17 20 19 19 19 18 22 19 18 21 20 20 20 20 19 18 17 15 14 12 10 9 7 7 6 7 5 5 6 7 7 8 8 8 8 8
5 9 5 7 14 7 7 7 8 9 11 15 13 13 22 21 20 20 17 15 17 17 19 18 18 18 18 17 16 14 12 11 9 8 7 6 6 5 5 5 5 6 7 7 7 7 7 8 9
6 2 16 6 6 9 9 7 9 10 13 13 10 12 20 21 20 16 18 18 15 18 17 17 17 17 17 15 13 12 10 8 7 5 4 3 3 2 2 4 4 5 6 6 5 5 5 5 6
9 1 6 6 3 9 8 7 8 10 13 14 12 17 18 17 21 20 19 14 17 18 20 16 14 15 14 14 12 10 10 8 6 4 4 2 2 1 2 4 4 4 4 3 4 4 4 4 9
8 8 6 3 4 7 8 7 7 9 11 14 16 19 14 15 18 19 18 17 17 16 16 13 16 15 15 12 12 10 9 7 6 5 4 3 3 4 3 6 5 6 6 9 5 6 6 3 2
10 2 3 5 6 8 8 8 7 9 9 13 15 17 14 15 18 19 19 18 18 16 17 17 13 12 11 12 11 8 7 7 6 6 5 5 6 5 4 1 8 6 4 5 6 6 10 10 8
14 7 4 3 7 9 10 8 9 9 11 14 16 17 15 18 19 19 18 15 14 14 14 13 12 11 10 9 9 9 9 8 7 8 7 7 5 5 5 7 7 7 8 8 8 10 12 11 13
13 11 7 6 10 12 11 10 10 10 11 15 17 16 17 17 19 20 20 18 15 14 13 12 11 11 11 10 9 8 8 9 8 9 8 6 5 3 4 7 7 9 9 9 12 12 12 13 15
18 12 10 9 14 13 13 12 13 14 12 16 17 19 20 20 21 21 19 17 15 14 14 13 13 12 11 11 10 9 8 9 8 8 7 7 6 6 7 10 9 8 13 12 12 13 15 16 13
19 17 17 13 15 14 18 19 18 16 15 17 18 20 21 22 21 20 18 17 17 17 17 15 15 14 13 12 11 10 11 9 8 8 10 11 10 9 10 10 10 10 11 14 14 16 16 17 17
24 23 20 16 18 14 17 14 17 16 16 19 19 20 21 21 22 21 20 20 20 19 18 17 15 15 14 13 12 12 11 10 12 9 13 12 12 12 13 13 13 14 13 14 15 14 20 22 17
28 25 23 22 21 16 14 6 10 14 16 17 20 22 22 22 21 21 20 21 20 19 19 17 17 17 16 16 14 13 13 13 13 13 12 13 17 15 15 15 17 15 15 13 12 17 20 19 19
25 23 15 21 20 21 19 15 14 13 16 17 20 23 24 24 22 22 21 22 22 22 20 18 17 16 16 16 15 15 14 14 14 14 6 18 17 16 16 16 18 13 13 14 17 17 15 14 18
29 27 22 17 19 24 20 20 18 17 17 19 21 23 25 25 25 25 25 25 24 23 21 19 18 18 17 16 16 15 13 10 11 12 14 14 14 14 14 12 12 11 11 14 14 12 12 12 12
33 31 23 22 21 19 21 23 22 21 19 19 21 23 24 27 27 28 28 28 27 27 24 22 20 19 18 17 17 17 15 13 13 12 8 8 9 8 8 6 6 4 6 11 9 10 10 10 10
36 29 24 24 25 22 25 23 28 25 24 23 22 23 25 26 29 28 29 30 30 29 28 24 22 22 20 19 18 16 15 12 8 5 7 3 3 4 5 5 4 2 2 7 10 12 11 9 8
37 32 29 27 25 31 28 30 22 25 28 25 23 23 24 25 27 29 30 30 29 30 29 27 25 23 22 21 20 18 17 12 11 10 10 10 8 6 4 3 2 1 4 6 9 12 13 12 10
34 32 32 32 32 25 28 29 30 24 26 22 23 21 23 24 26 26 27 29 30 29 28 27 25 23 23 22 21 20 17 15 15 14 13 11 9 7 6 3 1 4 7 10 11 12 12 13 12
38 36 30 23 24 20 34 33 29 22 20 24 23 22 22 24 26 28 28 29 28 25 25 25 25 25 26 23 21 20 19 18 16 14 13 11 9 9 7 7 7 8 9 11 13 14 15 15 14
45 45 37 26 18 23 37 36 38 28 15 17 18 19 20 24 26 28 27 28 27 22 23 25 27 26 26 22 20 22 19 19 15 13 13 14 14 14 11 12 13 14 12 15 16 16 18 15 16
44 51 44 39 36 31 34 35 29 17 30 26 22 20 22 21 24 28 30 26 25 25 21 22 25 27 26 23 23 24 19 17 14 15 18 20 19 18 15 17 20 21 15 18 21 21 20 18 16
50 44 45 47 28 26 35 34 31 30 27 25 26 23 22 22 24 26 30 30 27 26 24 23 25 27 27 26 25 24 23 20 19 21 18 22 22 22 21 24 24 23 31 31 30 28 21 20 18
41 52 48 46 47 21 19 30 33 24 23 28 28 24 21 23 23 24 29 32 30 26 27 29 27 29 31 29 27 26 25 24 24 22 22 27 26 26 26 24 29 36 30 33 30 29 27 24 20
42 45 49 41 40 43 43 34 28 26 22 19 24 22 19 19 22 25 24 29 33 32 30 30 31 31 33 29 29 28 29 29 27 29 30 31 34 33 36 32 32 36 40 37 34 26 28 25 23
Wind_Direction
64 77 143 83 83 130 106 94 105 127 82 103 100 67 56 57 105 117 117 113 118 117 120 120 121 122 127 128 135 134 132 136 138 134 132 122 124 116 95 84 81 71 60 50 44 45 46 37 39
60 84 85 310 34 152 115 108 84 93 101 88 88 84 65 74 116 121 122 121 117 114 116 117 123 129 134 136 137 134 133 134 129 131 129 127 123 108 98 87 77 67 57 45 40 41 43 35 36
66 91 314 265 169 43 97 107 107 107 96 90 67 73 98 110 115 125 127 128 125 123 124 124 128 132 137 136 135 130 126 126 130 133 129 127 121 110 100 89 73 62 53 44 37 36 37 39 30
111 12 28 317 46 53 106 119 117 113 111 99 108 96 113 120 123 133 132 129 126 127 128 128 129 131 132 131 128 130 132 130 131 127 127 121 111 103 95 80 68 54 41 35 33 33 38 35 44
133 273 285 58 71 96 106 119 128 115 103 97 122 124 125 126 132 138 136 132 130 130 129 132 133 132 134 134 138 136 132 130 129 128 123 116 110 102 83 69 55 36 28 34 38 36 41 43 50
267 333 122 87 95 109 122 128 125 127 125 126 135 131 133 134 135 136 142 126 140 136 133 135 137 137 140 140 138 134 135 135 131 127 120 112 104 84 61 51 46 38 35 36 34 39 35 47 54
277 288 98 93 109 117 132 137 141 139 122 132 137 134 139 139 146 138 147 147 142 141 136 137 142 143 145 143 141 142 139 137 135 127 118 112 93 74 62 62 45 36 28 28 35 38 50 56 53
258 261 163 124 116 110 142 130 147 140 142 150 157 157 151 155 146 156 147 139 149 141 144 146 144 147 149 149 150 149 145 143 139 132 123 104 87 66 55 43 24 23 29 17 26 30 31 43 45
246 256 272 134 136 119 135 143 135 157 154 151 152 161 159 156 151 155 137 173 154 156 153 148 151 153 153 151 154 156 155 154 156 144 133 136 77 7 11 46 32 21 22 26 14 14 25 35 36
220 318 67 111 108 141 138 144 159 145 153 158 137 162 170 166 158 160 159 168 163 160 158 161 164 156 155 156 159 163 166 170 172 168 190 200 182 279 304 340 344 350 1 353 19 357 349 346 4
243 88 44 132 145 150 146 151 149 161 162 169 165 163 177 173 168 165 165 171 168 162 165 174 177 164 166 176 172 177 178 184 192 206 218 242 278 298 300 333 314 319 19 337 3 346 321 348 262
252 234 109 140 166 168 163 157 154 153 170 174 172 171 182 178 173 172 171 176 176 173 166 185 173 172 175 178 183 192 198 204 215 229 247 265 274 292 301 266 279 298 296 299 314 297 297 303 296
227 217 221 221 187 184 173 174 173 165 161 170 173 177 179 178 178 179 179 182 181 181 180 183 184 185 189 197 194 193 202 239 231 243 243 266 286 302 300 309 309 296 294 294 297 294 298 307 309
220 221 245 229 200 191 187 185 179 188 163 174 176 181 177 182 183 184 185 190 190 191 193 197 200 201 203 208 212 214 224 223 238 246 260 251 266 250 274 289 292 300 307 291 289 297 302 306 310
218 231 231 223 197 191 183 190 193 194 175 179 178 182 185 187 191 194 193 199 202 202 208 211 213 218 217 221 223 227 232 233 243 254 262 260 268 273 278 287 295 291 297 293 297 298 304 306 322
220 219 219 194 191 192 197 192 178 191 182 188 186 187 191 195 198 201 205 207 212 213 216 215 220 223 222 226 231 235 239 241 259 246 249 272 270 269 270 276 284 289 297 299 304 306 300 304 308
216 220 227 174 188 201 214 227 169 183 186 195 195 197 197 199 201 206 211 213 215 218 218 218 222 231 228 225 229 232 240 245 225 255 263 248 274 280 282 287 289 285 288 291 299 286 300 308 305
209 219 215 190 192 202 207 159 174 191 195 201 203 203 204 206 209 211 215 220 220 220 221 221 222 227 231 227 224 227 231 235 246 253 268 275 273 272 277 278 280 282 287 293 298 298 298 301 303
218 214 216 219 190 197 203 212 187 204 201 208 213 210 211 212 214 213 222 224 227 227 225 228 230 234 236 232 226 224 228 233 246 254 266 266 266 271 273 273 281 283 288 281 283 296 297 300 303
227 228 221 209 184 191 205 213 217 213 214 211 214 220 214 215 213 216 218 220 230 238 239 236 239 242 240 235 228 223 225 242 263 263 251 255 266 266 266 269 273 281 271 291 293 296 300 310 312
224 231 220 214 183 196 221 219 215 219 225 219 218 219 223 216 215 219 218 228 231 239 241 240 242 248 244 240 225 221 226 217 228 232 250 258 259 262 259 253 257 278 281 300 317 324 329 326 321
221 223 231 223 189 217 209 247 210 216 218 223 221 217 218 221 217 218 223 222 224 235 246 244 244 247 241 225 223 213 216 213 211 213 218 207 198 179 158 149 141 139 349 346 351 351 342 332 329
223 219 226 230 208 236 209 225 223 215 205 213 222 224 219 220 219 216 221 226 224 225 235 244 242 242 233 218 212 203 206 194 183 176 168 169 167 159 156 143 126 46 356 352 348 350 348 342 332
219 226 227 229 239 234 225 207 231 190 209 205 217 223 222 220 220 221 219 223 226 223 227 235 229 225 219 207 203 201 196 190 179 187 185 193 196 189 184 176 316 345 338 335 338 338 342 337 336
217 223 231 228 226 239 222 210 228 225 217 217 214 219 226 222 218 220 219 217 225 230 226 223 218 209 206 199 201 199 196 195 196 194 205 212 218 225 232 254 282 297 308 315 322 324 327 328 330
213 214 222 222 227 230 234 230 225 226 210 199 227 223 225 220 220 219 227 225 233 239 230 220 215 206 203 203 202 200 200 204 208 216 223 224 230 239 243 263 277 291 303 307 308 312 313 320 323
215 221 222 233 232 237 230 227 236 232 228 234 238 234 231 227 225 225 220 232 238 239 232 226 217 208 209 209 204 203 203 204 205 219 226 231 233 247 268 270 281 295 296 307 306 303 305 309 314
223 219 220 227 237 235 230 241 226 223 228 233 227 233 232 228 228 224 222 227 236 241 232 226 221 215 218 216 211 210 211 213 218 230 236 240 247 253 262 270 280 284 301 290 290 292 294 303 305
216 227 222 228 232 246 243 237 226 214 223 225 226 226 228 228 224 227 225 224 239 239 240 224 219 215 217 219 217 221 221 224 230 243 245 247 255 254 275 280 285 281 290 309 310 278 297 295 296
225 225 225 221 228 239 252 248 230 222 216 215 212 213 222 227 233 230 226 224 224 239 233 235 223 218 219 221 221 225 230 236 243 251 256 258 264 268 275 282 289 293 290 297 326 275 274 283 289